QPF
0.00 0.00 0.00 0.00 0.00 0.00 0.00 0.00 0.00 0.00 0.00 0.00 0.00 0.00 0.00 0.00 0.00 0.00 0.00 0.00 0.00 0.00 0.00 0.00 0.00 0.00 0.00 0.00 0.00 0.00 0.00 0.00 0.00 0.00 0.00 0.00 0.00 0.00 0.00 0.00 0.00 0.03
0.00 0.00 0.00 0.00 0.00 0.00 0.00 0.00 0.00 0.00 0.00 0.00 0.00 0.00 0.00 0.00 0.00 0.00 0.00 0.00 0.00 0.00 0.00 0.00 0.00 0.00 0.00 0.00 0.00 0.00 0.00 0.00 0.00 0.00 0.00 0.00 0.00 0.00 0.00 0.00 0.00 0.00
0.00 0.00 0.00 0.00 0.00 0.00 0.00 0.00 0.00 0.00 0.00 0.00 0.00 0.00 0.00 0.00 0.00 0.00 0.00 0.00 0.00 0.00 0.00 0.00 0.00 0.00 0.00 0.00 0.00 0.00 0.00 0.00 0.00 0.00 0.00 0.00 0.00 0.00 0.00 0.00 0.00 0.00
0.00 0.00 0.00 0.00 0.00 0.00 0.00 0.00 0.00 0.00 0.00 0.00 0.00 0.00 0.00 0.00 0.00 0.00 0.00 0.00 0.00 0.00 0.00 0.00 0.00 0.00 0.00 0.00 0.00 0.00 0.00 0.00 0.00 0.00 0.00 0.00 0.00 0.00 0.00 0.00 0.00 0.00
0.00 0.00 0.00 0.00 0.00 0.00 0.00 0.00 0.00 0.00 0.00 0.00 0.00 0.00 0.00 0.00 0.00 0.00 0.00 0.00 0.00 0.00 0.00 0.00 0.00 0.00 0.00 0.00 0.00 0.00 0.00 0.00 0.00 0.00 0.00 0.00 0.00 0.00 0.00 0.00 0.00 0.00
0.00 0.00 0.00 0.00 0.00 0.00 0.00 0.00 0.00 0.00 0.00 0.00 0.00 0.00 0.00 0.00 0.00 0.00 0.00 0.00 0.00 0.00 0.00 0.00 0.00 0.00 0.00 0.00 0.00 0.00 0.00 0.00 0.00 0.00 0.00 0.00 0.00 0.00 0.00 0.00 0.00 0.00
0.00 0.00 0.00 0.00 0.00 0.00 0.00 0.00 0.00 0.00 0.00 0.00 0.00 0.00 0.00 0.00 0.00 0.00 0.00 0.00 0.00 0.00 0.00 0.00 0.00 0.00 0.00 0.00 0.00 0.00 0.00 0.00 0.00 0.00 0.00 0.00 0.00 0.00 0.00 0.00 0.00 0.00
0.00 0.00 0.00 0.00 0.00 0.00 0.00 0.00 0.00 0.00 0.00 0.00 0.00 0.00 0.00 0.00 0.00 0.00 0.00 0.00 0.00 0.00 0.00 0.00 0.00 0.00 0.00 0.00 0.00 0.00 0.00 0.00 0.00 0.00 0.00 0.00 0.00 0.00 0.00 0.00 0.00 0.00
0.00 0.00 0.00 0.00 0.00 0.00 0.00 0.00 0.00 0.00 0.00 0.00 0.00 0.00 0.00 0.00 0.00 0.00 0.00 0.00 0.00 0.00 0.00 0.00 0.00 0.00 0.00 0.00 0.00 0.00 0.00 0.00 0.00 0.00 0.00 0.00 0.00 0.00 0.00 0.00 0.00 0.00
0.00 0.00 0.00 0.00 0.00 0.00 0.00 0.00 0.00 0.00 0.00 0.00 0.00 0.00 0.00 0.00 0.00 0.00 0.00 0.00 0.00 0.00 0.00 0.00 0.00 0.00 0.00 0.00 0.00 0.00 0.00 0.00 0.00 0.00 0.00 0.00 0.00 0.00 0.00 0.00 0.00 0.00
0.00 0.00 0.00 0.00 0.00 0.00 0.00 0.00 0.00 0.00 0.00 0.00 0.00 0.00 0.00 0.00 0.00 0.00 0.00 0.00 0.00 0.00 0.00 0.00 0.00 0.00 0.00 0.00 0.00 0.00 0.00 0.00 0.00 0.00 0.00 0.00 0.00 0.00 0.00 0.00 0.00 0.00
0.00 0.00 0.00 0.00 0.00 0.00 0.00 0.00 0.00 0.00 0.00 0.00 0.00 0.00 0.00 0.00 0.00 0.00 0.00 0.00 0.00 0.00 0.00 0.00 0.00 0.00 0.00 0.00 0.00 0.00 0.00 0.00 0.00 0.00 0.00 0.00 0.00 0.00 0.00 0.00 0.00 0.00
0.00 0.00 0.00 0.00 0.00 0.00 0.00 0.00 0.00 0.00 0.00 0.00 0.00 0.00 0.00 0.00 0.00 0.00 0.00 0.00 0.00 0.00 0.00 0.00 0.00 0.00 0.00 0.00 0.00 0.00 0.00 0.00 0.00 0.00 0.00 0.00 0.00 0.00 0.00 0.00 0.00 0.00
0.00 0.00 0.00 0.00 0.00 0.00 0.00 0.00 0.00 0.00 0.00 0.00 0.00 0.00 0.00 0.00 0.00 0.00 0.00 0.00 0.00 0.00 0.00 0.00 0.00 0.00 0.00 0.00 0.00 0.00 0.00 0.00 0.00 0.00 0.00 0.00 0.00 0.00 0.00 0.00 0.00 0.00
0.00 0.00 0.00 0.00 0.00 0.00 0.00 0.00 0.00 0.00 0.00 0.00 0.00 0.00 0.00 0.00 0.00 0.00 0.00 0.00 0.00 0.00 0.00 0.00 0.00 0.00 0.00 0.00 0.00 0.00 0.00 0.00 0.00 0.00 0.00 0.00 0.00 0.00 0.00 0.00 0.00 0.00
0.00 0.00 0.00 0.00 0.00 0.00 0.00 0.00 0.00 0.00 0.00 0.00 0.00 0.00 0.00 0.00 0.00 0.00 0.00 0.00 0.00 0.00 0.00 0.00 0.00 0.00 0.00 0.00 0.00 0.00 0.00 0.00 0.00 0.00 0.00 0.00 0.00 0.00 0.00 0.00 0.00 0.00
0.00 0.00 0.00 0.00 0.00 0.00 0.00 0.00 0.00 0.00 0.00 0.00 0.00 0.00 0.00 0.00 0.00 0.00 0.00 0.00 0.00 0.00 0.00 0.00 0.00 0.00 0.00 0.00 0.00 0.00 0.00 0.00 0.00 0.00 0.00 0.00 0.00 0.00 0.00 0.00 0.00 0.00
0.00 0.00 0.00 0.00 0.00 0.00 0.00 0.00 0.00 0.00 0.00 0.00 0.00 0.00 0.00 0.00 0.00 0.00 0.00 0.00 0.00 0.00 0.00 0.00 0.00 0.00 0.00 0.00 0.00 0.00 0.00 0.00 0.00 0.00 0.00 0.00 0.00 0.00 0.00 0.00 0.00 0.00
0.00 0.00 0.00 0.00 0.00 0.00 0.00 0.00 0.00 0.00 0.00 0.00 0.00 0.00 0.00 0.00 0.00 0.00 0.00 0.00 0.00 0.00 0.00 0.00 0.00 0.00 0.00 0.00 0.00 0.00 0.00 0.00 0.00 0.00 0.00 0.00 0.00 0.00 0.00 0.00 0.00 0.00
0.00 0.00 0.00 0.00 0.00 0.00 0.00 0.00 0.00 0.00 0.00 0.00 0.00 0.00 0.00 0.00 0.00 0.00 0.00 0.00 0.00 0.00 0.00 0.00 0.00 0.00 0.00 0.00 0.00 0.00 0.00 0.00 0.00 0.00 0.00 0.00 0.00 0.00 0.00 0.00 0.00 0.00
0.00 0.00 0.00 0.00 0.00 0.00 0.00 0.00 0.00 0.00 0.00 0.00 0.00 0.00 0.00 0.00 0.00 0.00 0.00 0.00 0.00 0.00 0.00 0.00 0.00 0.00 0.00 0.00 0.00 0.00 0.00 0.00 0.00 0.00 0.00 0.00 0.00 0.00 0.00 0.00 0.00 0.00
0.00 0.00 0.00 0.00 0.00 0.00 0.00 0.00 0.00 0.00 0.00 0.00 0.00 0.00 0.00 0.00 0.00 0.00 0.00 0.00 0.00 0.00 0.00 0.00 0.00 0.00 0.00 0.00 0.00 0.00 0.00 0.00 0.00 0.00 0.00 0.00 0.00 0.00 0.00 0.00 0.00 0.00
0.00 0.00 0.00 0.00 0.00 0.00 0.00 0.00 0.00 0.00 0.00 0.00 0.00 0.00 0.00 0.00 0.00 0.00 0.00 0.00 0.00 0.00 0.00 0.00 0.00 0.00 0.00 0.00 0.00 0.00 0.00 0.00 0.00 0.00 0.00 0.00 0.00 0.00 0.00 0.00 0.00 0.00
0.00 0.00 0.00 0.00 0.00 0.00 0.00 0.00 0.00 0.00 0.00 0.00 0.00 0.00 0.00 0.00 0.00 0.00 0.00 0.00 0.00 0.00 0.00 0.00 0.00 0.00 0.00 0.00 0.00 0.00 0.00 0.00 0.00 0.00 0.00 0.00 0.00 0.00 0.00 0.00 0.00 0.00
0.00 0.00 0.00 0.00 0.00 0.00 0.00 0.00 0.00 0.00 0.00 0.00 0.00 0.00 0.00 0.00 0.00 0.00 0.00 0.00 0.00 0.00 0.00 0.00 0.00 0.00 0.00 0.00 0.00 0.00 0.00 0.00 0.00 0.00 0.00 0.00 0.00 0.00 0.00 0.00 0.00 0.00
0.00 0.00 0.00 0.00 0.00 0.00 0.00 0.00 0.00 0.00 0.00 0.00 0.00 0.00 0.00 0.00 0.00 0.00 0.00 0.00 0.00 0.00 0.00 0.00 0.00 0.00 0.00 0.00 0.00 0.00 0.00 0.00 0.00 0.00 0.00 0.00 0.00 0.00 0.00 0.00 0.00 0.00
MSLP
1016.05 1016.25 1016.37 1016.53 1016.69 1016.85 1017.01 1017.17 1017.33 1017.49 1017.61 1017.69 1017.89 1018.01 1018.09 1018.17 1018.25 1018.37 1018.53 1018.65 1018.77 1018.89 1019.01 1019.09 1019.17 1019.25 1019.29 1019.29 1019.29 1019.25 1019.17 1019.09 1018.89 1018.69 1018.53 1018.41 1018.29 1018.25 1018.17 1017.97 1017.85 1017.81
1015.93 1016.05 1016.25 1016.41 1016.61 1016.73 1016.85 1016.93 1017.13 1017.25 1017.45 1017.57 1017.69 1017.85 1017.97 1018.09 1018.21 1018.29 1018.49 1018.61 1018.73 1018.89 1019.01 1019.09 1019.17 1019.21 1019.25 1019.25 1019.25 1019.25 1019.17 1019.09 1019.01 1018.77 1018.65 1018.53 1018.33 1018.13 1018.01 1017.93 1017.77 1017.57
1015.77 1015.97 1016.13 1016.33 1016.49 1016.65 1016.77 1016.85 1016.93 1017.13 1017.29 1017.41 1017.53 1017.65 1017.85 1017.93 1018.13 1018.21 1018.37 1018.53 1018.69 1018.81 1018.93 1018.97 1019.01 1019.05 1019.09 1019.09 1019.13 1019.17 1019.13 1019.05 1019.01 1018.89 1018.81 1018.73 1018.53 1018.29 1018.01 1017.81 1017.69 1017.53
1015.61 1015.73 1015.93 1016.13 1016.29 1016.49 1016.65 1016.77 1016.89 1017.05 1017.21 1017.41 1017.49 1017.61 1017.69 1017.81 1018.01 1018.17 1018.25 1018.37 1018.57 1018.69 1018.81 1018.93 1019.01 1019.09 1019.13 1019.13 1019.13 1019.09 1019.09 1019.09 1019.01 1018.89 1018.81 1018.65 1018.49 1018.37 1018.09 1017.85 1017.57 1017.41
1015.37 1015.57 1015.77 1015.97 1016.13 1016.33 1016.49 1016.65 1016.85 1017.01 1017.17 1017.29 1017.45 1017.53 1017.65 1017.77 1017.93 1018.05 1018.17 1018.33 1018.45 1018.61 1018.69 1018.77 1018.85 1018.97 1019.01 1019.05 1019.09 1019.09 1019.09 1019.05 1019.01 1018.93 1018.85 1018.69 1018.49 1018.41 1018.17 1017.93 1017.69 1017.45
1015.21 1015.37 1015.57 1015.77 1015.97 1016.17 1016.41 1016.53 1016.73 1016.93 1017.13 1017.29 1017.37 1017.45 1017.57 1017.69 1017.81 1017.97 1018.09 1018.21 1018.33 1018.45 1018.57 1018.69 1018.81 1018.89 1018.93 1018.97 1019.01 1019.01 1019.01 1019.01 1018.97 1018.97 1018.89 1018.77 1018.57 1018.41 1018.25 1018.05 1017.89 1017.69
1015.09 1015.25 1015.45 1015.65 1015.89 1016.13 1016.33 1016.49 1016.65 1016.81 1017.01 1017.13 1017.21 1017.33 1017.45 1017.61 1017.73 1017.85 1017.97 1018.09 1018.17 1018.29 1018.45 1018.57 1018.69 1018.81 1018.85 1018.85 1018.89 1018.89 1018.89 1018.89 1018.93 1018.93 1018.93 1018.77 1018.65 1018.49 1018.37 1018.25 1018.05 1017.85
1014.93 1015.09 1015.33 1015.57 1015.81 1016.09 1016.25 1016.45 1016.61 1016.73 1016.89 1017.01 1017.17 1017.29 1017.41 1017.53 1017.61 1017.73 1017.81 1017.93 1018.09 1018.17 1018.29 1018.41 1018.49 1018.57 1018.65 1018.69 1018.73 1018.73 1018.73 1018.77 1018.77 1018.85 1018.89 1018.85 1018.73 1018.61 1018.45 1018.41 1018.25 1018.09
1014.81 1015.05 1015.25 1015.53 1015.77 1016.05 1016.25 1016.41 1016.57 1016.73 1016.81 1016.93 1017.09 1017.17 1017.25 1017.37 1017.49 1017.61 1017.73 1017.85 1017.97 1018.09 1018.17 1018.29 1018.37 1018.41 1018.49 1018.57 1018.61 1018.65 1018.69 1018.65 1018.65 1018.69 1018.77 1018.81 1018.73 1018.53 1018.41 1018.33 1018.29 1018.17
1014.73 1014.97 1015.21 1015.49 1015.73 1016.01 1016.17 1016.37 1016.53 1016.65 1016.77 1016.85 1016.97 1017.09 1017.17 1017.29 1017.41 1017.53 1017.65 1017.77 1017.89 1018.01 1018.09 1018.17 1018.29 1018.45 1018.49 1018.53 1018.57 1018.61 1018.65 1018.61 1018.57 1018.57 1018.61 1018.61 1018.53 1018.37 1018.25 1018.17 1018.09 1018.05
1014.57 1014.85 1015.13 1015.41 1015.65 1015.93 1016.13 1016.29 1016.45 1016.61 1016.69 1016.77 1016.89 1017.01 1017.09 1017.21 1017.33 1017.45 1017.53 1017.69 1017.85 1017.93 1018.09 1018.25 1018.33 1018.37 1018.41 1018.45 1018.53 1018.53 1018.49 1018.45 1018.45 1018.41 1018.41 1018.33 1018.25 1018.17 1018.09 1018.01 1017.93 1017.81
1014.29 1014.65 1014.97 1015.29 1015.53 1015.81 1016.01 1016.21 1016.37 1016.53 1016.61 1016.69 1016.77 1016.89 1017.05 1017.17 1017.29 1017.45 1017.57 1017.73 1017.85 1018.01 1018.09 1018.17 1018.21 1018.25 1018.29 1018.33 1018.33 1018.37 1018.37 1018.37 1018.29 1018.25 1018.17 1018.13 1018.09 1018.01 1017.89 1017.77 1017.69 1017.57
1014.01 1014.33 1014.73 1015.09 1015.37 1015.65 1015.89 1016.09 1016.29 1016.41 1016.53 1016.61 1016.69 1016.81 1016.93 1017.17 1017.37 1017.49 1017.61 1017.73 1017.81 1017.93 1018.01 1018.05 1018.09 1018.13 1018.13 1018.09 1018.09 1018.09 1018.09 1018.09 1018.01 1017.93 1017.89 1017.85 1017.77 1017.69 1017.57 1017.49 1017.41 1017.29
1013.77 1014.13 1014.57 1014.93 1015.25 1015.53 1015.73 1015.97 1016.17 1016.29 1016.41 1016.53 1016.65 1016.81 1017.01 1017.13 1017.29 1017.41 1017.53 1017.69 1017.85 1018.01 1018.09 1018.13 1018.17 1018.17 1018.17 1018.13 1018.05 1018.05 1017.97 1017.85 1017.73 1017.61 1017.53 1017.45 1017.33 1017.25 1017.17 1017.09 1017.01 1016.93
1013.65 1014.05 1014.45 1014.81 1015.17 1015.41 1015.65 1015.85 1016.01 1016.21 1016.37 1016.49 1016.61 1016.77 1016.89 1017.01 1017.17 1017.37 1017.53 1017.65 1017.73 1017.81 1017.89 1018.01 1018.09 1018.13 1018.09 1018.05 1018.01 1017.93 1017.85 1017.69 1017.53 1017.37 1017.25 1017.13 1017.01 1016.85 1016.73 1016.65 1016.57 1016.45
1013.53 1013.93 1014.33 1014.69 1015.05 1015.33 1015.57 1015.77 1015.97 1016.13 1016.29 1016.45 1016.57 1016.69 1016.85 1017.01 1017.21 1017.29 1017.37 1017.53 1017.69 1017.81 1017.89 1017.97 1018.01 1018.05 1018.01 1017.97 1017.97 1018.01 1017.97 1017.85 1017.61 1017.41 1017.21 1017.01 1016.81 1016.57 1016.41 1016.33 1016.21 1016.13
1013.53 1013.93 1014.29 1014.69 1014.97 1015.25 1015.45 1015.69 1015.89 1016.09 1016.25 1016.41 1016.57 1016.73 1016.89 1017.05 1017.13 1017.25 1017.41 1017.53 1017.65 1017.77 1017.85 1017.93 1017.97 1017.97 1017.89 1017.85 1017.85 1017.81 1017.89 1017.85 1017.77 1017.57 1017.37 1017.13 1016.89 1016.61 1016.29 1016.01 1015.81 1015.73
1013.57 1013.97 1014.37 1014.69 1014.93 1015.13 1015.37 1015.57 1015.81 1016.05 1016.25 1016.45 1016.61 1016.77 1016.89 1017.01 1017.17 1017.29 1017.45 1017.57 1017.57 1017.61 1017.69 1017.77 1017.81 1017.73 1017.65 1017.61 1017.53 1017.49 1017.45 1017.45 1017.45 1017.37 1017.21 1017.05 1016.89 1016.65 1016.25 1015.93 1015.61 1015.37
1013.61 1014.01 1014.41 1014.69 1014.89 1015.09 1015.33 1015.53 1015.73 1015.97 1016.25 1016.45 1016.61 1016.73 1016.89 1017.09 1017.29 1017.41 1017.41 1017.45 1017.49 1017.53 1017.53 1017.57 1017.53 1017.45 1017.37 1017.29 1017.21 1017.17 1017.13 1017.09 1017.01 1016.93 1016.81 1016.65 1016.57 1016.37 1016.17 1015.93 1015.69 1015.37
1013.69 1014.05 1014.41 1014.69 1014.89 1015.09 1015.25 1015.45 1015.69 1015.93 1016.21 1016.41 1016.61 1016.85 1017.01 1017.13 1017.21 1017.29 1017.37 1017.41 1017.45 1017.45 1017.41 1017.37 1017.29 1017.21 1017.09 1017.01 1016.93 1016.89 1016.85 1016.81 1016.73 1016.61 1016.41 1016.21 1016.09 1015.97 1015.77 1015.61 1015.45 1015.29
1013.77 1014.13 1014.41 1014.65 1014.81 1015.01 1015.17 1015.45 1015.65 1016.01 1016.25 1016.41 1016.57 1016.89 1017.05 1017.17 1017.29 1017.37 1017.41 1017.41 1017.41 1017.37 1017.29 1017.21 1017.13 1016.97 1016.89 1016.85 1016.81 1016.73 1016.69 1016.73 1016.65 1016.45 1016.17 1015.85 1015.65 1015.49 1015.33 1015.13 1014.97 1014.81
1013.77 1014.05 1014.29 1014.49 1014.77 1014.97 1015.21 1015.45 1015.73 1015.97 1016.13 1016.49 1016.85 1017.13 1017.29 1017.37 1017.41 1017.45 1017.41 1017.41 1017.37 1017.29 1017.25 1017.17 1017.05 1016.89 1016.77 1016.69 1016.65 1016.57 1016.45 1016.37 1016.25 1016.01 1015.73 1015.41 1015.13 1014.97 1014.77 1014.53 1014.37 1014.21
1013.77 1014.01 1014.25 1014.45 1014.69 1014.97 1015.21 1015.41 1015.65 1016.09 1016.49 1016.85 1017.13 1017.29 1017.29 1017.33 1017.33 1017.33 1017.33 1017.33 1017.29 1017.25 1017.17 1017.05 1016.89 1016.73 1016.61 1016.49 1016.41 1016.29 1016.21 1016.05 1015.81 1015.53 1015.25 1014.93 1014.61 1014.41 1014.21 1013.93 1013.73 1013.61
1013.69 1013.93 1014.17 1014.37 1014.65 1014.89 1015.25 1015.57 1015.93 1016.21 1016.53 1016.85 1016.97 1017.13 1017.21 1017.25 1017.25 1017.29 1017.29 1017.25 1017.17 1017.09 1017.01 1016.85 1016.65 1016.49 1016.37 1016.21 1016.09 1015.97 1015.85 1015.69 1015.45 1015.21 1014.89 1014.69 1014.21 1013.93 1013.73 1013.37 1013.13 1013.01
1013.57 1013.93 1014.25 1014.49 1014.77 1015.05 1015.33 1015.65 1015.89 1016.09 1016.49 1016.73 1016.89 1017.05 1017.13 1017.17 1017.17 1017.21 1017.25 1017.17 1017.09 1017.01 1016.85 1016.69 1016.49 1016.29 1016.09 1015.89 1015.73 1015.57 1015.49 1015.33 1015.17 1014.89 1014.57 1014.21 1013.89 1013.33 1013.17 1012.93 1012.57 1012.37
1013.61 1013.97 1014.13 1014.37 1014.69 1015.09 1015.33 1015.53 1015.73 1015.93 1016.37 1016.57 1016.77 1016.85 1016.93 1016.97 1017.01 1017.05 1017.01 1016.97 1016.89 1016.73 1016.61 1016.41 1016.21 1015.97 1015.81 1015.57 1015.37 1015.21 1015.17 1015.09 1014.85 1014.65 1014.21 1013.81 1013.49 1013.09 1012.57 1012.21 1012.09 1011.73
Thickness
5604 5603 5602 5602 5601 5601 5601 5599 5599 5598 5597 5597 5597 5596 5596 5596 5595 5594 5593 5592 5592 5591 5591 5590 5590 5590 5591 5592 5593 5594 5594 5595 5597 5598 5601 5603 5604 5605 5606 5608 5610 5612
5601 5601 5599 5599 5598 5598 5597 5596 5596 5596 5595 5594 5594 5594 5593 5592 5592 5591 5590 5589 5588 5587 5587 5587 5587 5587 5587 5588 5589 5589 5590 5591 5592 5593 5594 5596 5598 5601 5602 5603 5606 5607
5599 5598 5597 5596 5595 5594 5593 5593 5592 5592 5591 5590 5590 5590 5589 5589 5588 5587 5586 5585 5584 5583 5582 5582 5583 5583 5583 5584 5584 5585 5585 5586 5586 5588 5588 5590 5592 5594 5597 5599 5600 5602
5595 5595 5594 5593 5592 5591 5589 5589 5588 5588 5587 5586 5586 5585 5585 5584 5583 5582 5581 5580 5579 5578 5578 5577 5577 5578 5578 5578 5579 5579 5580 5581 5581 5582 5583 5584 5585 5587 5590 5592 5595 5598
5592 5591 5591 5589 5588 5587 5586 5585 5584 5583 5583 5581 5581 5580 5580 5579 5578 5578 5576 5575 5574 5573 5573 5573 5572 5572 5572 5572 5572 5573 5573 5575 5576 5577 5578 5579 5579 5581 5583 5585 5588 5591
5588 5587 5587 5585 5584 5583 5582 5581 5580 5578 5577 5576 5576 5575 5575 5574 5573 5572 5571 5570 5569 5568 5568 5567 5567 5566 5566 5567 5567 5567 5567 5567 5568 5570 5572 5573 5574 5575 5576 5578 5580 5583
5584 5583 5582 5581 5579 5578 5577 5576 5575 5573 5572 5572 5571 5570 5569 5569 5568 5567 5566 5565 5564 5563 5563 5562 5561 5560 5560 5561 5561 5561 5561 5561 5561 5563 5564 5566 5567 5568 5569 5570 5573 5576
5581 5580 5578 5576 5575 5573 5572 5571 5569 5568 5567 5567 5566 5565 5564 5563 5562 5562 5561 5560 5559 5558 5557 5557 5556 5555 5554 5555 5555 5555 5555 5555 5555 5556 5557 5558 5560 5562 5563 5563 5565 5568
5577 5575 5574 5572 5570 5568 5566 5565 5564 5563 5562 5561 5560 5559 5559 5558 5557 5556 5555 5554 5553 5552 5551 5550 5550 5549 5549 5548 5548 5548 5548 5549 5549 5550 5550 5551 5553 5555 5557 5558 5558 5560
5573 5571 5570 5567 5566 5564 5562 5560 5559 5558 5557 5556 5555 5554 5553 5552 5551 5551 5549 5548 5547 5546 5544 5544 5543 5542 5542 5541 5541 5540 5541 5542 5543 5544 5544 5545 5546 5548 5550 5552 5553 5554
5569 5567 5565 5563 5561 5559 5558 5556 5555 5553 5552 5551 5550 5548 5547 5546 5545 5544 5543 5542 5540 5538 5538 5536 5535 5535 5534 5533 5534 5533 5534 5535 5536 5538 5539 5539 5541 5542 5543 5545 5547 5549
5567 5564 5561 5559 5557 5555 5553 5552 5550 5549 5547 5546 5545 5543 5542 5540 5539 5538 5536 5535 5533 5532 5531 5529 5529 5528 5527 5527 5526 5527 5527 5528 5530 5531 5533 5534 5535 5536 5537 5539 5542 5543
5564 5562 5559 5556 5553 5551 5549 5547 5545 5544 5543 5541 5540 5539 5537 5535 5534 5532 5531 5529 5527 5526 5524 5523 5522 5521 5521 5520 5520 5520 5521 5522 5524 5525 5527 5528 5530 5531 5532 5533 5535 5537
5561 5558 5555 5552 5549 5547 5544 5543 5541 5539 5538 5537 5535 5534 5532 5530 5529 5527 5525 5523 5521 5519 5517 5516 5515 5514 5514 5514 5513 5514 5514 5515 5517 5519 5521 5522 5524 5526 5528 5529 5530 5532
5556 5554 5551 5548 5545 5543 5540 5539 5537 5535 5534 5532 5531 5529 5528 5526 5524 5522 5519 5517 5515 5513 5511 5510 5509 5508 5507 5507 5507 5507 5507 5508 5510 5512 5514 5516 5518 5521 5522 5524 5525 5527
5551 5549 5547 5543 5541 5538 5536 5534 5532 5530 5529 5527 5526 5525 5523 5521 5519 5516 5514 5511 5509 5507 5505 5503 5503 5501 5501 5500 5499 5499 5499 5500 5502 5504 5506 5508 5511 5514 5517 5519 5520 5521
5546 5543 5541 5537 5536 5533 5531 5529 5528 5526 5525 5523 5521 5520 5518 5516 5514 5511 5508 5505 5503 5501 5499 5498 5496 5495 5494 5494 5492 5492 5492 5493 5494 5495 5497 5500 5502 5505 5509 5512 5514 5516
5539 5536 5534 5531 5530 5528 5527 5525 5523 5521 5519 5517 5516 5514 5512 5510 5508 5504 5501 5499 5497 5495 5493 5492 5490 5489 5489 5488 5487 5486 5486 5486 5488 5489 5490 5493 5494 5497 5500 5503 5506 5509
5532 5530 5527 5525 5524 5523 5522 5520 5518 5515 5514 5511 5510 5508 5506 5503 5500 5498 5495 5492 5490 5489 5487 5486 5485 5484 5483 5482 5482 5481 5480 5480 5482 5483 5485 5487 5488 5490 5492 5494 5498 5501
5526 5523 5521 5519 5519 5517 5516 5515 5513 5510 5507 5505 5504 5502 5500 5497 5493 5491 5488 5486 5484 5482 5481 5481 5479 5478 5477 5476 5475 5475 5474 5474 5474 5476 5478 5480 5482 5483 5485 5487 5490 5491
5519 5517 5515 5514 5513 5512 5511 5509 5507 5504 5502 5500 5498 5495 5492 5489 5486 5483 5481 5479 5477 5475 5474 5474 5473 5472 5471 5470 5469 5468 5467 5467 5468 5469 5472 5474 5476 5477 5479 5481 5484 5485
5514 5511 5510 5508 5507 5506 5505 5503 5501 5498 5496 5493 5490 5486 5484 5481 5478 5476 5474 5472 5470 5469 5468 5467 5466 5465 5464 5463 5463 5462 5461 5461 5462 5463 5465 5468 5471 5472 5473 5476 5478 5479
5508 5506 5504 5504 5503 5502 5499 5498 5495 5492 5489 5486 5482 5479 5476 5474 5471 5469 5466 5465 5463 5462 5461 5461 5460 5459 5458 5457 5456 5455 5455 5455 5455 5457 5459 5461 5465 5466 5468 5471 5473 5474
5502 5500 5500 5499 5498 5497 5494 5492 5489 5485 5483 5480 5476 5472 5470 5467 5465 5462 5460 5458 5456 5455 5454 5454 5454 5453 5451 5450 5450 5449 5448 5449 5449 5451 5453 5454 5458 5461 5462 5465 5467 5469
5496 5495 5495 5494 5492 5491 5488 5486 5483 5480 5477 5473 5470 5467 5464 5461 5459 5456 5454 5451 5450 5448 5447 5446 5446 5446 5445 5444 5445 5444 5443 5443 5442 5444 5446 5448 5451 5455 5458 5460 5461 5464
5491 5489 5490 5490 5487 5486 5483 5480 5478 5476 5471 5467 5465 5462 5459 5455 5453 5450 5448 5446 5444 5442 5442 5440 5440 5441 5440 5439 5439 5438 5437 5436 5436 5437 5439 5442 5445 5449 5452 5455 5457 5458